| time (UTC) | temp F | wind direction | speed MPH | gust MPH | rain 1hr in | rain 24hr in | rain mn in | humidity % | barometer mb |
| 20260504150537 | 65 | 258 | 0.0 | 1.0 | 0.00 | 0.00 | 0.00 | 44 | 1008.4 |
| 20260504140517 | 60 | 0.0 | 0.0 | 0.00 | 0.00 | 0.00 | 55 | 1008.6 | |
| 20260504130517 | 55 | 0.0 | 0.0 | 0.00 | 0.00 | 0.00 | 64 | 1009.2 | |
| 20260504110517 | 47 | 0.0 | 0.0 | 0.00 | 0.00 | 0.00 | 82 | 1009.8 | |
| 20260504100517 | 47 | 0.0 | 0.0 | 0.00 | 0.00 | 0.00 | 79 | 1009.7 | |
| 20260504081517 | 47 | 0.0 | 0.0 | 0.00 | 0.00 | 0.00 | 86 | 1010.0 | |
| 20260504080517 | 47 | 0.0 | 0.0 | 0.00 | 0.00 | 0.00 | 86 | 1010.0 | |
| 20260504050517 | 45 | 0.0 | 0.0 | 0.00 | 0.00 | 0.00 | 87 | 1010.2 | |
| 20260504045517 | 45 | 0.0 | 0.0 | 0.00 | 0.00 | 0.00 | 87 | 1010.1 | |
| 20260504044517 | 45 | 0.0 | 0.0 | 0.00 | 0.00 | 0.00 | 87 | 1010.2 | |
| 20260504043517 | 45 | 0.0 | 0.0 | 0.00 | 0.00 | 0.00 | 87 | 1010.1 | |
| 20260504042517 | 44 | 0.0 | 0.0 | 0.00 | 0.00 | 0.00 | 88 | 1010.0 | |
| 20260504041537 | 44 | 0.0 | 0.0 | 0.00 | 0.00 | 0.00 | 89 | 1009.9 | |
| 20260504040517 | 44 | 0.0 | 0.0 | 0.00 | 0.00 | 0.00 | 88 | 1009.8 | |
| 20260504035516 | 44 | 0.0 | 0.0 | 0.00 | 0.00 | 0.00 | 87 | 1010.1 | |
| 20260504034537 | 44 | 0.0 | 0.0 | 0.00 | 0.00 | 0.00 | 87 | 1010.2 | |
| 20260504033536 | 45 | 0.0 | 0.0 | 0.00 | 0.00 | 0.00 | 87 | 1010.1 | |
| 20260504032516 | 45 | 0.0 | 0.0 | 0.00 | 0.00 | 0.00 | 86 | 1010.1 | |
| 20260504031517 | 46 | 0.0 | 0.0 | 0.00 | 0.00 | 0.00 | 84 | 1009.9 | |
| 20260504030517 | 46 | 0.0 | 0.0 | 0.00 | 0.00 | 0.00 | 83 | 1009.9 | |
| 20260504025558 | 46 | 0.0 | 0.0 | 0.00 | 0.00 | 0.00 | 81 | 1009.8 | |
| 20260504024517 | 47 | 0.0 | 0.0 | 0.00 | 0.00 | 0.00 | 80 | 1009.9 | |
| 20260504023537 | 47 | 0.0 | 0.0 | 0.00 | 0.00 | 0.00 | 78 | 1009.8 | |
| 20260504022517 | 48 | 0.0 | 0.0 | 0.00 | 0.00 | 0.00 | 78 | 1009.7 | |
| 20260504021517 | 48 | 0.0 | 0.0 | 0.00 | 0.00 | 0.00 | 74 | 1009.6 | |
| 20260504020516 | 48 | 0.0 | 0.0 | 0.00 | 0.00 | 0.00 | 74 | 1009.6 | |
| 20260504015516 | 49 | 0.0 | 0.0 | 0.00 | 0.00 | 0.00 | 71 | 1009.5 | |
| 20260504014517 | 49 | 0.0 | 0.0 | 0.00 | 0.00 | 0.00 | 72 | 1009.4 | |
| 20260504013517 | 49 | 0.0 | 0.0 | 0.00 | 0.00 | 0.00 | 70 | 1009.5 | |
| 20260504012517 | 50 | 0.0 | 0.0 | 0.00 | 0.00 | 0.00 | 69 | 1009.3 | |
| 20260504011517 | 51 | 0.0 | 0.0 | 0.00 | 0.00 | 0.00 | 67 | 1009.1 | |
| 20260504010517 | 51 | 0.0 | 0.0 | 0.00 | 0.00 | 0.00 | 66 | 1009.0 | |
| 20260504005517 | 52 | 0.0 | 0.0 | 0.00 | 0.00 | 0.00 | 64 | 1009.1 | |
| 20260504004517 | 52 | 0.0 | 0.0 | 0.00 | 0.00 | 0.00 | 60 | 1009.1 | |
| 20260504003516 | 53 | 0.0 | 0.0 | 0.00 | 0.00 | 0.00 | 58 | 1009.1 | |
| 20260504002517 | 54 | 0.0 | 0.0 | 0.00 | 0.00 | 0.00 | 56 | 1008.9 | |
| 20260504001517 | 55 | 0.0 | 0.0 | 0.00 | 0.00 | 0.00 | 52 | 1008.9 | |
| 20260504000517 | 56 | 0.0 | 0.0 | 0.00 | 0.00 | 0.00 | 52 | 1008.8 | |
| 20260503235516 | 57 | 0.0 | 0.0 | 0.00 | 0.00 | 0.00 | 46 | 1008.7 | |
| 20260503234517 | 57 | 0.0 | 0.0 | 0.00 | 0.00 | 0.00 | 44 | 1008.7 | |
| 20260503233517 | 58 | 0.0 | 0.0 | 0.00 | 0.00 | 0.00 | 41 | 1008.6 | |
| 20260503232557 | 59 | 0.0 | 0.0 | 0.00 | 0.00 | 0.00 | 41 | 1008.5 | |
| 20260503231516 | 59 | 0.0 | 0.0 | 0.00 | 0.00 | 0.00 | 39 | 1008.5 | |
| 20260503230517 | 60 | 279 | 0.0 | 1.0 | 0.00 | 0.00 | 0.00 | 37 | 1008.4 |
| 20260503225517 | 60 | 0.0 | 0.0 | 0.00 | 0.00 | 0.00 | 39 | 1008.5 | |
| 20260503224517 | 60 | 0.0 | 0.0 | 0.00 | 0.00 | 0.00 | 38 | 1008.5 | |
| 20260503223517 | 61 | 0.0 | 1.0 | 0.00 | 0.00 | 0.00 | 36 | 1008.5 | |
| 20260503222557 | 61 | 259 | 0.0 | 1.0 | 0.00 | 0.00 | 0.00 | 36 | 1008.5 |
| 20260503221524 | 62 | 0.0 | 0.0 | 0.00 | 0.00 | 0.00 | 35 | 1008.5 | |
| 20260503220537 | 62 | 281 | 0.0 | 1.0 | 0.00 | 0.00 | 0.00 | 34 | 1008.7 |
| 20260503215516 | 62 | 270 | 0.0 | 1.0 | 0.00 | 0.00 | 0.00 | 32 | 1008.6 |
| 20260503214516 | 62 | 258 | 1.0 | 2.0 | 0.00 | 0.00 | 0.00 | 33 | 1008.6 |
| 20260503213517 | 62 | 280 | 0.0 | 1.0 | 0.00 | 0.00 | 0.00 | 32 | 1008.7 |
| 20260503212517 | 62 | 269 | 1.0 | 2.0 | 0.00 | 0.00 | 0.00 | 32 | 1008.7 |
| 20260503211517 | 62 | 265 | 1.0 | 2.0 | 0.00 | 0.00 | 0.00 | 33 | 1008.6 |
| 20260503210517 | 62 | 257 | 1.0 | 2.0 | 0.00 | 0.00 | 0.00 | 32 | 1008.6 |
| 20260503205536 | 62 | 264 | 1.0 | 2.0 | 0.00 | 0.00 | 0.00 | 33 | 1008.8 |
| 20260503204517 | 62 | 270 | 1.0 | 2.0 | 0.00 | 0.00 | 0.00 | 34 | 1008.8 |
| 20260503203517 | 61 | 276 | 1.0 | 3.0 | 0.00 | 0.00 | 0.00 | 34 | 1008.7 |
| 20260503202517 | 61 | 271 | 1.0 | 2.0 | 0.00 | 0.00 | 0.00 | 34 | 1009.0 |
| 20260503201517 | 61 | 272 | 1.0 | 3.0 | 0.00 | 0.00 | 0.00 | 33 | 1009.0 |
| 20260503200517 | 61 | 270 | 1.0 | 2.0 | 0.00 | 0.00 | 0.00 | 34 | 1009.3 |
| 20260503195517 | 60 | 285 | 0.0 | 2.0 | 0.00 | 0.00 | 0.00 | 35 | 1009.5 |
| 20260503194536 | 60 | 259 | 1.0 | 1.0 | 0.00 | 0.00 | 0.00 | 36 | 1009.5 |
| 20260503193517 | 61 | 252 | 1.0 | 2.0 | 0.00 | 0.00 | 0.00 | 34 | 1009.7 |
| 20260503192517 | 60 | 278 | 0.0 | 2.0 | 0.00 | 0.00 | 0.00 | 37 | 1009.8 |
| 20260503191517 | 60 | 295 | 1.0 | 3.0 | 0.00 | 0.00 | 0.00 | 36 | 1010.0 |
| 20260503190517 | 59 | 275 | 0.0 | 2.0 | 0.00 | 0.00 | 0.00 | 35 | 1010.1 |
| 20260503185517 | 59 | 286 | 1.0 | 2.0 | 0.00 | 0.00 | 0.00 | 37 | 1010.1 |
| 20260503184516 | 59 | 266 | 1.0 | 3.0 | 0.00 | 0.00 | 0.00 | 36 | 1010.4 |
| 20260503183517 | 59 | 258 | 0.0 | 1.0 | 0.00 | 0.00 | 0.00 | 37 | 1010.5 |
| 20260503182517 | 58 | 269 | 0.0 | 2.0 | 0.00 | 0.00 | 0.00 | 38 | 1010.6 |
| 20260503181517 | 58 | 276 | 1.0 | 2.0 | 0.00 | 0.00 | 0.00 | 37 | 1010.7 |
| 20260503180517 | 58 | 274 | 1.0 | 3.0 | 0.00 | 0.00 | 0.00 | 39 | 1010.6 |
| 20260503175517 | 57 | 264 | 1.0 | 4.0 | 0.00 | 0.00 | 0.00 | 38 | 1010.9 |
| 20260503174517 | 57 | 265 | 1.0 | 3.0 | 0.00 | 0.00 | 0.00 | 38 | 1010.8 |
| 20260503173517 | 57 | 271 | 1.0 | 2.0 | 0.00 | 0.00 | 0.00 | 39 | 1010.8 |
| 20260503172537 | 57 | 287 | 1.0 | 2.0 | 0.00 | 0.00 | 0.00 | 39 | 1011.0 |
| 20260503171517 | 56 | 264 | 1.0 | 4.0 | 0.00 | 0.00 | 0.00 | 39 | 1011.0 |
| 20260503170517 | 55 | 294 | 1.0 | 2.0 | 0.00 | 0.00 | 0.00 | 40 | 1011.2 |